Weather History for Avalon, VC

Change the Weather History Date:

Wednesday, July 24, 2013

  Actual Average (YMML) Record (YMML)
Temperature  
Mean Temperature 52 °F -  
Max Temperature 56 °F 54 °F 62 °F (2005)
Min Temperature 47 °F 41 °F 35 °F (1997)
Degree Days  
Heating Degree Days 14    
Growing Degree Days 2 (Base 50)    
Moisture  
Dew Point 44 °F    
Average Humidity 75    
Maximum Humidity 87    
Minimum Humidity 52    
Precipitation  
Precipitation 0.00 in - - ()
Sea Level Pressure  
Sea Level Pressure 30.45 in    
Wind  
Wind Speed 6 mph ()    
Max Wind Speed 13 mph    
Max Gust Speed -    
Visibility 6.2 miles    
Events      
Averages and records for this station are not official NWS values.
T = Trace of Precipitation, MM = Missing Value Source: Averaged Metar Reports

Daily Weather History Graph

Daily Weather History Graph

Search for Another Location

Airport:

Trip Planner

Search our weather history database for the weather conditions in past years. The results will help you decide how hot, cold, wet, or windy it might be!

Date:

Astronomy

Jul. 24, 2013 Rise Set
Actual Time 7:29 AM AEST 5:27 PM AEST
Civil Twilight 7:01 AM AEST 5:56 PM AEST
Nautical Twilight 6:29 AM AEST 6:28 PM AEST
Astronomical Twilight 5:57 AM AEST 6:59 PM AEST
Moon 7:26 PM AEST (7/24) 8:01 AM AEST (7/24)
Length of Visible Light 10h 55m
Length of Day
9h 58m
Full, 97% of the Moon is Illuminated
Jul 24
Full
Jul 30
Last Quarter
Aug 7
New
Aug 14
First Quarter
Aug 21
Full

Hourly Weather History & Observations

Time (AEST) Temp. Dew Point Humidity Pressure Visibility Wind Dir Wind Speed Gust Speed Precip Events Conditions
12:00 AM 50 °F 45 °F 77% 30.45 in - West 9.2 mph - -   Overcast
12:00 AM 50.0 °F 44.6 °F 82% 30.45 in 6.2 mi West 9.2 mph - N/A   Overcast
12:30 AM 50.0 °F 44.6 °F 82% 30.45 in 6.2 mi West 8.1 mph - N/A   Overcast
1:00 AM 50.0 °F 44.6 °F 82% 30.45 in 6.2 mi West 5.8 mph - N/A   Overcast
1:30 AM 50.0 °F 44.6 °F 82% 30.45 in 6.2 mi West 6.9 mph - N/A   Overcast
2:00 AM 50.0 °F 44.6 °F 82% 30.45 in 6.2 mi West 5.8 mph - N/A   Overcast
2:30 AM 50.0 °F 44.6 °F 82% 30.45 in 6.2 mi West 6.9 mph - N/A   Overcast
3:00 AM 49 °F 44 °F 79% 30.45 in - West 8.1 mph - -  
3:00 AM 50.0 °F 44.6 °F 82% 30.45 in 6.2 mi West 8.1 mph - N/A   Overcast
3:30 AM 48.2 °F 44.6 °F 87% 30.45 in 6.2 mi West 6.9 mph - N/A   Overcast
4:00 AM 48.2 °F 44.6 °F 87% 30.45 in 6.2 mi West 6.9 mph - N/A   Overcast
4:30 AM 48.2 °F 44.6 °F 87% 30.45 in 6.2 mi West 5.8 mph - N/A   Overcast
5:00 AM 48.2 °F 44.6 °F 87% 30.45 in 6.2 mi West 5.8 mph - N/A   Overcast
5:30 AM 48.2 °F 44.6 °F 87% 30.45 in 6.2 mi WNW 5.8 mph - N/A   Overcast
6:00 AM 48 °F 44 °F 83% 30.46 in - NW 4.6 mph - -  
6:00 AM 48.2 °F 44.6 °F 87% 30.45 in 6.2 mi NW 4.6 mph - N/A   Overcast
6:30 AM 48.2 °F 44.6 °F 87% 30.45 in 6.2 mi WNW 5.8 mph - N/A   Overcast
7:00 AM 48.2 °F 44.6 °F 87% 30.45 in 6.2 mi West 5.8 mph - N/A   Overcast
7:30 AM 48.2 °F 44.6 °F 87% 30.48 in 6.2 mi West 5.8 mph - N/A   Overcast
8:00 AM 50.0 °F 44.6 °F 82% 30.48 in 6.2 mi West 5.8 mph - N/A   Overcast
8:30 AM 50.0 °F 44.6 °F 82% 30.48 in 6.2 mi West 4.6 mph - N/A   Overcast
9:00 AM 51 °F 45 °F 74% 30.50 in - WSW 6.9 mph - -   Overcast
9:00 AM 51.8 °F 44.6 °F 76% 30.48 in 6.2 mi WSW 6.9 mph - N/A   Overcast
9:30 AM 51.8 °F 44.6 °F 76% 30.48 in 6.2 mi West 8.1 mph - N/A   Overcast
10:00 AM 53.6 °F 46.4 °F 77% 30.48 in 6.2 mi West 5.8 mph - N/A   Overcast
10:30 AM 55.4 °F 44.6 °F 67% 30.48 in 6.2 mi SW 6.9 mph - N/A   Overcast
11:00 AM 53.6 °F 44.6 °F 72% 30.51 in 6.2 mi West 12.7 mph - N/A   Overcast
11:30 AM 55.4 °F 46.4 °F 72% 30.48 in 6.2 mi West 8.1 mph - N/A   Overcast
12:00 PM 56 °F 45 °F 56% 30.49 in - WSW 9.2 mph - -   Overcast
12:00 PM 55.4 °F 44.6 °F 67% 30.48 in 6.2 mi WSW 9.2 mph - N/A   Overcast
12:30 PM 55.4 °F 44.6 °F 67% 30.48 in 6.2 mi West 10.4 mph - N/A   Overcast
1:00 PM 55.4 °F 44.6 °F 67% 30.45 in 6.2 mi SW 6.9 mph - N/A   Overcast
1:30 PM 55.4 °F 46.4 °F 72% 30.45 in 6.2 mi SW 9.2 mph - N/A   Overcast
2:00 PM 55.4 °F 44.6 °F 67% 30.42 in 6.2 mi SSW 6.9 mph - N/A   Overcast
2:30 PM 55.4 °F 42.8 °F 63% 30.42 in 6.2 mi South 6.9 mph - N/A   Overcast
3:00 PM 56 °F 43 °F 52% 30.44 in - SSE 3.5 mph - -   Overcast
3:00 PM 55.4 °F 42.8 °F 63% 30.42 in 6.2 mi SSE 3.5 mph - N/A   Overcast
3:30 PM 55.4 °F 44.6 °F 67% 30.42 in 6.2 mi South 6.9 mph - N/A   Overcast
4:00 PM 55.4 °F 44.6 °F 67% 30.42 in 6.2 mi South 6.9 mph - N/A   Overcast
4:30 PM 55.4 °F 44.6 °F 67% 30.42 in 6.2 mi South 5.8 mph - N/A   Overcast
5:00 PM 53.6 °F 44.6 °F 72% 30.42 in 6.2 mi SSW 5.8 mph - N/A   Overcast
5:30 PM 53.6 °F 46.4 °F 77% 30.42 in 6.2 mi SSW 4.6 mph - N/A   Overcast
6:00 PM 53 °F 45 °F 65% 30.44 in - SSW 6.9 mph - -   Overcast
6:00 PM 53.6 °F 44.6 °F 72% 30.42 in 6.2 mi SSW 6.9 mph - N/A   Overcast
6:30 PM 51.8 °F 44.6 °F 76% 30.42 in 6.2 mi SW 5.8 mph - N/A   Overcast
7:00 PM 53.6 °F 42.8 °F 67% 30.42 in 6.2 mi WSW 5.8 mph - N/A   Overcast
7:30 PM 51.8 °F 42.8 °F 71% 30.42 in 6.2 mi West 4.6 mph - N/A   Overcast
8:00 PM 51.8 °F 42.8 °F 71% 30.42 in 6.2 mi WSW 3.5 mph - N/A   Overcast
8:30 PM 51.8 °F 44.6 °F 76% 30.42 in 6.2 mi Calm Calm - N/A   Overcast
9:00 PM 52 °F 43 °F 63% 30.44 in - Calm Calm - -   Overcast
9:00 PM 51.8 °F 42.8 °F 71% 30.42 in 6.2 mi Calm Calm - N/A   Overcast
9:30 PM 51.8 °F 42.8 °F 71% 30.42 in 6.2 mi Calm Calm - N/A   Overcast
10:00 PM 51.8 °F 42.8 °F 71% 30.42 in 6.2 mi East 4.6 mph - N/A   Overcast
10:30 PM 51.8 °F 42.8 °F 71% 30.42 in 6.2 mi Calm Calm - N/A   Overcast
11:00 PM 50.0 °F 42.8 °F 76% 30.42 in 6.2 mi Calm Calm - N/A   Overcast
11:30 PM 50.0 °F 42.8 °F 76% 30.39 in 6.2 mi NNE 1.2 mph - N/A   Mostly Cloudy